AL YAH 3

Last updated on Sun Apr 12 2026 00:02:54 GMT+0000 (Coordinated Universal Time)

1 43174U 18012A 26101.37407641 -.00000153 00000+0 00000+0 0 9991 2 43174 1.3782 83.8793 0004371 306.2693 284.0217 1.00272688 30173
UTC large
Height (km)
Speed (km/s)
/
Latitude / Longitude
Inclination (degrees)
Orbital Period (minutes)
Azimuth
Elevation
Range (km)
Doppler Factor

Next 0 passes for location: London (51.5072 / 0.1276)

Sorry there are no passes over London.
AL YAH 3